Location: Home
(42.5358°N, 72.7383°W)
Time: 11:46:41
(UTC-05:00)

Transit 4A - Pass Details

Date: 06 December 2021
Orbit: 863 x 981 km, 66.8° (Epoch: 26 January)

Event Time Altitude Azimuth Distance (km) Brightness Sun altitude
Rises 03:39:48 0° 328° (NNW) 3,620 - -37.2°
Reaches altitude 10° 03:42:19 10° 327° (NNW) 2,687 - -36.8°
Maximum altitude 03:48:37 80° 242° (WSW) 989 - -35.6°
Exits shadow 03:52:17 27° 159° (SSE) 1,765 9.4 -34.9°
Drops below altitude 10° 03:55:00 10° 156° (SSE) 2,721 10.5 -34.4°
Sets 03:57:34 0° 156° (SSE) 3,668 11.3 -34.0°
